Location: Unspecified
(0.0000°N, 0.0000°E)
Time: 20:24:43
(UTC+01:00)

Iridium 28 - Visible Passes

Search period start: 19 January 2018 00:00
Search period end: 29 January 2018 00:00
Orbit: 772 x 774 km, 86.4° (Epoch: 18 January)

Date Brightness Start Highest point End Pass type
(mag) Time Alt. Az. Time Alt. Az. Time Alt. Az.
19 Jan 5.9 05:51:29 10° S 05:56:38 64° E 06:01:45 10° N visible
20 Jan 7.5 05:17:28 10° SSE 05:21:50 27° E 05:26:10 10° NNE visible
21 Jan 8.5 04:45:19 10° ESE 04:47:01 12° E 04:48:44 10° ENE visible
21 Jan 6.0 06:22:36 10° SSW 06:27:21 37° W 06:32:06 10° NNW visible
22 Jan 5.4 05:47:21 10° S 05:52:34 88° W 05:57:44 10° N visible
23 Jan 6.8 05:12:55 10° SSE 05:17:45 39° E 05:22:34 10° NNE visible
24 Jan 8.0 04:39:38 10° SE 04:42:57 17° E 04:46:16 10° NE visible
24 Jan 6.5 06:19:01 10° SW 06:23:17 26° W 06:27:32 10° NW visible
25 Jan 5.5 05:43:23 10° S 05:48:30 61° W 05:53:11 12° NNW visible
26 Jan 6.0 05:08:36 10° SSE 05:13:41 57° E 05:16:27 26° NNE visible
27 Jan 7.5 04:34:42 10° SE 04:38:53 25° E 04:40:04 23° ENE visible
27 Jan 6.8 06:15:45 10° SW 06:19:13 18° W 06:20:20 17° WNW visible
28 Jan 8.5 04:03:42 10° E 04:03:53 10° E 04:03:53 10° E visible
28 Jan 5.9 05:39:32 10° SSW 05:44:11 41° W 05:44:11 41° W visible
